INTELSAT 904 (IS-904) (27380 NORAD) Tracking and Keplerian Element Data

This shows tracking and keplerian element data for the satellite.

Feedback or suggestion? Click here.




ElementValue
Catalog27380
NameINTELSAT 904 (IS-904)
Epoch Orbit6161
Epoch Day349.64074284
Epoch Year2018
RAAN101.3413
Inclination0.1906
Eccentricity6.37E-05
Argument of Perigee96.0225
Mean Anonmoly162.6485
Mean Motion1.00271534
Decay Rate1.49E-06
L11 27380U 02007A 18349.64074284 .00000149 00000-0 00000+0 0 9992
L22 27380 0.1906 101.3413 0000637 96.0225 162.6485 1.00271534 61610

Live tracking and technical data element details for INTELSAT 904 (IS-904) (NORAD 27380). INTELSAT 904 (IS-904) can be tracked NOW for your location showing map with azimuth and elevation plus other details from your city location.

Track the satellite on the map from your city or location and see movement details for azimuth, elevation, latitude, longitude, range, height, and movement on the map or in text.







IsCatalogInMostPopularTable: catalog: 27380, numindb: 50
Update: records affected: 1



GetName: 27380 INTELSAT 904 (IS-904)

Hit Count: updated at: Sun, 16 Dec 2018 11:20:18 GMT